COSMOS 2522 (752) (42939 NORAD) Tracking and Keplerian Element Data

This shows tracking and keplerian element data for the satellite.

Feedback or suggestion? Click here.




ElementValue
Catalog42939
NameCOSMOS 2522 (752)
Epoch Orbit3900
Epoch Day269.43858457
Epoch Year2022
RAAN238.3632
Inclination64.1382
Eccentricity0.0009805
Argument of Perigee245.4594
Mean Anonmoly289.352
Mean Motion2.13102055
Decay Rate3.8E-07
L11 42939U 17055A 22269.43858457 .00000038 00000+0 00000+0 0 9999
L22 42939 64.1382 238.3632 0009805 245.4594 289.3520 2.13102055 39005

Live tracking and technical data element details for COSMOS 2522 (752) (NORAD 42939). COSMOS 2522 (752) can be tracked NOW for your location showing map with azimuth and elevation plus other details from your city location.

Track the satellite on the map from your city or location and see movement details for azimuth, elevation, latitude, longitude, range, height, and movement on the map or in text.







IsCatalogInMostPopularTable: catalog: 42939, numindb: 613
Update: records affected: 1



GetName: 42939 COSMOS 2522 (752)

Hit Count: updated at: Wed, 28 Sep 2022 22:04:44 GMT